sat.trackr.live / text

‹ back to catalog

STARLINK-34338

NORAD 64151 · 2025-112F

PAYLOAD ACTIVE UNKNOWN

§ Identity

Operator
Country
US
Launch date
2025-05-27
Launch site
AFWTR
Launch vehicle
Mass (kg)
RCS (m²)

Purposes: comms

External: N2YO · Heavens-Above · Gunter

§ Orbital elements

Epoch: 2026-05-25T02:54:07.194240Z

Period
95.64 min
Inclination
97.4488°
Eccentricity
0.0001727
Mean motion
15.05658746 rev/d
Perigee alt
548.3 km
Apogee alt
550.7 km
Semi-major
6,927.6 km
B*
1.8949e-4
RAAN
196.5584°
Arg perigee
146.2528°
Mean anomaly
213.8809°
Rev number
5,481

§ Raw data

STARLINK-343381 64151U 25112F   26145.12091660  .00002677  00000+0  18949-3 0  99962 64151  97.4488 196.5584 0001727 146.2528 213.8809 15.05658746 54818

JSON: /api/v1/satellites/64151 · /tle

For live sub-satellite position, see the globe view (requires WebGL).

§ Visibility from observer

Set your observer location to see the next 7 days of passes ≥ 10°. The values pass through the URL so the page stays shareable.

No JS? Fill the form by hand. The geolocation button needs JavaScript.